| time (UTC) | temp F | wind direction | speed MPH | gust MPH | rain 1hr in | rain 24hr in | rain mn in | humidity % | barometer mb |
| 20260504173004 | 58 | 278 | 6.0 | 16.0 | 0.00 | 1.76 | 0.38 | 34 | 998.8 |
| 20260504172003 | 57 | 238 | 4.0 | 13.0 | 0.00 | 1.79 | 0.38 | 35 | 998.8 |
| 20260504171003 | 57 | 252 | 6.0 | 16.0 | 0.00 | 1.81 | 0.38 | 36 | 999.2 |
| 20260504151003 | 51 | 274 | 5.0 | 15.0 | 0.00 | 1.85 | 0.38 | 57 | 999.2 |
| 20260504141003 | 48 | 273 | 5.0 | 18.0 | 0.00 | 1.86 | 0.38 | 68 | 998.5 |
| 20260504082004 | 38 | 281 | 4.0 | 9.0 | 0.04 | 1.86 | 0.37 | 98 | 994.4 |
| 20260504081003 | 38 | 283 | 5.0 | 18.0 | 0.04 | 1.85 | 0.36 | 98 | 994.0 |
| 20260504050004 | 34 | 285 | 5.0 | 16.0 | 0.08 | 1.59 | 0.10 | 98 | 991.7 |
| 20260504045003 | 34 | 303 | 5.0 | 15.0 | 0.08 | 1.58 | 0.09 | 98 | 991.3 |
| 20260504044003 | 34 | 283 | 5.0 | 13.0 | 0.07 | 1.56 | 0.07 | 99 | 991.3 |
| 20260504043003 | 34 | 293 | 5.0 | 15.0 | 0.06 | 1.55 | 0.06 | 99 | 991.3 |
| 20260504042003 | 34 | 293 | 4.0 | 10.0 | 0.05 | 1.54 | 0.05 | 99 | 991.3 |
| 20260504041003 | 34 | 287 | 4.0 | 10.0 | 0.03 | 1.52 | 0.03 | 99 | 991.0 |
| 20260504040003 | 33 | 285 | 4.0 | 10.0 | 0.02 | 1.51 | 0.02 | 99 | 991.0 |
| 20260504035003 | 33 | 297 | 4.0 | 10.0 | 0.01 | 1.50 | 0.01 | 99 | 991.0 |
| 20260504034003 | 33 | 285 | 4.0 | 10.0 | 0.00 | 1.49 | 0.00 | 99 | 991.0 |
| 20260504033003 | 33 | 305 | 3.0 | 13.0 | 0.00 | 1.49 | 0.00 | 99 | 991.0 |
| 20260504032003 | 33 | 301 | 3.0 | 9.0 | 0.00 | 1.49 | 0.00 | 99 | 991.0 |
| 20260504031003 | 33 | 302 | 3.0 | 8.0 | 0.00 | 1.49 | 0.00 | 99 | 990.6 |
| 20260504030004 | 33 | 300 | 3.0 | 7.0 | 0.00 | 1.49 | 0.00 | 99 | 990.6 |
| 20260504025003 | 33 | 313 | 3.0 | 9.0 | 0.00 | 1.49 | 1.49 | 99 | 990.6 |
| 20260504024004 | 33 | 314 | 3.0 | 10.0 | 0.00 | 1.49 | 1.49 | 99 | 990.6 |
| 20260504023003 | 33 | 294 | 3.0 | 8.0 | 0.01 | 1.49 | 1.49 | 98 | 990.6 |
| 20260504022003 | 33 | 302 | 3.0 | 9.0 | 0.02 | 1.49 | 1.49 | 98 | 990.6 |
| 20260504021003 | 33 | 301 | 3.0 | 13.0 | 0.03 | 1.49 | 1.49 | 98 | 991.0 |
| 20260504020004 | 33 | 312 | 3.0 | 13.0 | 0.05 | 1.49 | 1.49 | 98 | 991.0 |
| 20260504015003 | 33 | 304 | 3.0 | 11.0 | 0.09 | 1.49 | 1.49 | 98 | 991.0 |
| 20260504014003 | 34 | 304 | 4.0 | 11.0 | 0.13 | 1.49 | 1.49 | 98 | 991.0 |
| 20260504013003 | 34 | 324 | 3.0 | 11.0 | 0.17 | 1.48 | 1.48 | 98 | 991.0 |
| 20260504012003 | 34 | 323 | 3.0 | 11.0 | 0.18 | 1.47 | 1.47 | 97 | 991.0 |
| 20260504011003 | 34 | 321 | 3.0 | 13.0 | 0.18 | 1.46 | 1.46 | 97 | 991.0 |
| 20260504010003 | 35 | 313 | 4.0 | 14.0 | 0.18 | 1.44 | 1.44 | 97 | 991.0 |
| 20260504005004 | 35 | 333 | 3.0 | 10.0 | 0.17 | 1.40 | 1.40 | 97 | 991.0 |
| 20260504004003 | 36 | 345 | 3.0 | 8.0 | 0.16 | 1.36 | 1.36 | 97 | 991.3 |
| 20260504003004 | 36 | 2 | 2.0 | 9.0 | 0.14 | 1.31 | 1.31 | 97 | 991.0 |
| 20260504002003 | 36 | 3 | 3.0 | 17.0 | 0.15 | 1.29 | 1.29 | 97 | 991.3 |
| 20260504001003 | 36 | 312 | 3.0 | 16.0 | 0.18 | 1.28 | 1.28 | 97 | 991.3 |
| 20260504000004 | 37 | 339 | 2.0 | 11.0 | 0.18 | 1.26 | 1.26 | 97 | 991.7 |
| 20260503235003 | 37 | 49 | 2.0 | 9.0 | 0.17 | 1.23 | 1.23 | 97 | 991.7 |
| 20260503234003 | 37 | 22 | 3.0 | 14.0 | 0.16 | 1.20 | 1.20 | 97 | 991.7 |
| 20260503233003 | 37 | 351 | 2.0 | 7.0 | 0.14 | 1.17 | 1.17 | 97 | 991.7 |
| 20260503232003 | 37 | 52 | 3.0 | 13.0 | 0.13 | 1.14 | 1.14 | 97 | 991.7 |
| 20260503231003 | 38 | 29 | 2.0 | 8.0 | 0.12 | 1.10 | 1.10 | 97 | 991.7 |
| 20260503230003 | 38 | 29 | 3.0 | 10.0 | 0.11 | 1.08 | 1.08 | 97 | 992.3 |
| 20260503225003 | 38 | 16 | 2.0 | 8.0 | 0.11 | 1.06 | 1.06 | 98 | 992.0 |
| 20260503224003 | 38 | 48 | 3.0 | 15.0 | 0.10 | 1.04 | 1.04 | 98 | 992.3 |
| 20260503223003 | 38 | 32 | 2.0 | 13.0 | 0.11 | 1.03 | 1.03 | 98 | 992.7 |
| 20260503222003 | 39 | 23 | 2.0 | 11.0 | 0.12 | 1.01 | 1.01 | 98 | 993.0 |
| 20260503221003 | 39 | 33 | 2.0 | 6.0 | 0.12 | 0.98 | 0.98 | 98 | 993.0 |
| 20260503220003 | 39 | 42 | 2.0 | 10.0 | 0.13 | 0.97 | 0.97 | 98 | 993.7 |
| 20260503215003 | 39 | 50 | 2.0 | 10.0 | 0.13 | 0.95 | 0.95 | 97 | 993.7 |
| 20260503214003 | 39 | 43 | 2.0 | 10.0 | 0.14 | 0.94 | 0.94 | 98 | 993.7 |
| 20260503213003 | 39 | 54 | 3.0 | 13.0 | 0.13 | 0.92 | 0.92 | 98 | 994.4 |
| 20260503212004 | 39 | 43 | 3.0 | 14.0 | 0.12 | 0.89 | 0.89 | 98 | 994.7 |
| 20260503211003 | 39 | 52 | 2.0 | 9.0 | 0.11 | 0.86 | 0.86 | 98 | 995.1 |
| 20260503210004 | 39 | 46 | 2.0 | 9.0 | 0.13 | 0.84 | 0.84 | 98 | 995.4 |
| 20260503205004 | 39 | 65 | 1.0 | 4.0 | 0.15 | 0.82 | 0.82 | 98 | 995.7 |
| 20260503204003 | 38 | 55 | 2.0 | 11.0 | 0.17 | 0.80 | 0.80 | 98 | 995.7 |
| 20260503203004 | 38 | 16 | 1.0 | 4.0 | 0.19 | 0.79 | 0.79 | 98 | 996.4 |
| 20260503202003 | 38 | 27 | 1.0 | 4.0 | 0.22 | 0.77 | 0.77 | 98 | 996.8 |
| 20260503201004 | 37 | 57 | 1.0 | 6.0 | 0.26 | 0.75 | 0.75 | 97 | 997.1 |
| 20260503200003 | 37 | 64 | 1.0 | 6.0 | 0.29 | 0.71 | 0.71 | 97 | 997.8 |
| 20260503195003 | 37 | 67 | 2.0 | 9.0 | 0.29 | 0.67 | 0.67 | 97 | 998.1 |
| 20260503194003 | 37 | 51 | 2.0 | 7.0 | 0.30 | 0.63 | 0.63 | 96 | 997.8 |
| 20260503193003 | 37 | 53 | 2.0 | 7.0 | 0.31 | 0.60 | 0.60 | 96 | 998.1 |
| 20260503192003 | 37 | 63 | 3.0 | 10.0 | 0.29 | 0.55 | 0.55 | 95 | 998.5 |
| 20260503191004 | 38 | 65 | 3.0 | 11.0 | 0.27 | 0.49 | 0.49 | 95 | 999.2 |
| 20260503190003 | 39 | 67 | 3.0 | 9.0 | 0.23 | 0.42 | 0.42 | 95 | 999.5 |
| 20260503185003 | 39 | 72 | 4.0 | 11.0 | 0.22 | 0.38 | 0.38 | 94 | 999.8 |
| 20260503184003 | 40 | 76 | 3.0 | 11.0 | 0.20 | 0.33 | 0.33 | 95 | 999.5 |
| 20260503183003 | 40 | 68 | 3.0 | 14.0 | 0.18 | 0.29 | 0.29 | 94 | 999.8 |
| 20260503182004 | 41 | 77 | 3.0 | 11.0 | 0.18 | 0.26 | 0.26 | 94 | 999.8 |
| 20260503181004 | 41 | 78 | 3.0 | 8.0 | 0.16 | 0.22 | 0.22 | 94 | 999.8 |
| 20260503180004 | 42 | 80 | 4.0 | 11.0 | 0.14 | 0.19 | 0.19 | 93 | 1000.2 |
| 20260503175003 | 43 | 82 | 3.0 | 9.0 | 0.12 | 0.16 | 0.16 | 94 | 1000.5 |
| 20260503174003 | 43 | 60 | 3.0 | 10.0 | 0.10 | 0.13 | 0.13 | 94 | 1000.9 |